Weather History for Sulphur Springs, TX

Change the Weather History Date:

Friday, May 16, 2014

  Actual Average (KGVT) Record (KGVT)
Temperature  
Mean Temperature 65 °F -  
Max Temperature 79 °F 80 °F 93 °F (2003)
Min Temperature 51 °F 65 °F 50 °F (2006)
Growing Degree Days 15 (Base 50)    
Moisture  
Dew Point 52 °F    
Average Humidity 60    
Maximum Humidity 93    
Minimum Humidity 34    
Precipitation  
Precipitation 0.00 in - - ()
Sea Level Pressure  
Sea Level Pressure 30.08 in    
Wind  
Wind Speed 7 mph (SE)    
Max Wind Speed 14 mph    
Max Gust Speed 18 mph    
Visibility 10 miles    
Events      
Averages and records for this station are not official NWS values.
T = Trace of Precipitation, MM = Missing Value Source: NWS Daily Summary

Daily Weather History Graph

Daily Weather History Graph

Search for Another Location

Airport:

Trip Planner

Search our weather history database for the weather conditions in past years. The results will help you decide how hot, cold, wet, or windy it might be!

Date:

Astronomy

May. 16, 2014 Rise Set
Actual Time 6:22 AM CDT 8:16 PM CDT
Civil Twilight 5:54 AM CDT 8:43 PM CDT
Nautical Twilight 5:21 AM CDT 9:16 PM CDT
Astronomical Twilight 4:46 AM CDT 9:52 PM CDT
Moon 10:23 PM CDT (5/16) 8:04 AM CDT (5/16)
Length of Visible Light 14h 48m
Length of Day
13h 53m
Waning Gibbous, 95% of the Moon is Illuminated
May 16
Waning Gibbous
May 21
Last Quarter
May 28
New
Jun 5
First Quarter
Jun 12
Full

Hourly Weather History & Observations

Time (CDT) Temp. Dew Point Humidity Pressure Visibility Wind Dir Wind Speed Gust Speed Precip Events Conditions
12:15 AM 60.4 °F 48.4 °F 64% 30.18 in 10.0 mi East 6.9 mph - N/A   Clear
12:35 AM 60.4 °F 49.1 °F 66% 30.18 in 10.0 mi East 8.1 mph - N/A   Clear
1:15 AM 59.5 °F 50.0 °F 71% 30.18 in 10.0 mi East 9.2 mph - N/A   Clear
1:35 AM 59.4 °F 50.2 °F 72% 30.17 in 10.0 mi ESE 8.1 mph - N/A   Clear
1:55 AM 59.0 °F 50.5 °F 73% 30.16 in 10.0 mi ESE 8.1 mph - N/A   Clear
2:15 AM 58.6 °F 50.7 °F 75% 30.15 in 10.0 mi ESE 8.1 mph - N/A   Clear
2:35 AM 58.6 °F 50.7 °F 75% 30.13 in 10.0 mi SE 8.1 mph - N/A   Clear
2:55 AM 58.1 °F 50.2 °F 75% 30.14 in 10.0 mi East 4.6 mph - N/A   Clear
3:15 AM 56.7 °F 50.2 °F 79% 30.14 in 10.0 mi East 5.8 mph - N/A   Clear
3:35 AM 55.4 °F 49.8 °F 81% 30.13 in 10.0 mi East 5.8 mph - N/A   Clear
3:55 AM 55.6 °F 50.0 °F 81% 30.14 in 10.0 mi NE 5.8 mph - N/A   Clear
4:15 AM 54.5 °F 49.6 °F 84% 30.15 in 10.0 mi ENE 3.5 mph - N/A   Clear
4:35 AM 54.0 °F 49.6 °F 85% 30.14 in 10.0 mi ESE 4.6 mph - N/A   Clear
4:55 AM 53.6 °F 49.6 °F 86% 30.15 in 10.0 mi ESE 4.6 mph - N/A   Clear
5:15 AM 52.7 °F 49.1 °F 88% 30.14 in 10.0 mi East 5.8 mph - N/A   Clear
5:35 AM 52.3 °F 49.3 °F 89% 30.13 in 10.0 mi East 5.8 mph - N/A   Clear
5:55 AM 52.0 °F 49.3 °F 90% 30.14 in 10.0 mi ESE 5.8 mph - N/A   Clear
6:15 AM 52.0 °F 49.3 °F 90% 30.14 in 10.0 mi East 6.9 mph - N/A   Clear
6:35 AM 51.8 °F 49.6 °F 92% 30.14 in 10.0 mi ESE 6.9 mph - N/A   Clear
6:55 AM 51.8 °F 49.8 °F 93% 30.14 in 10.0 mi ESE 4.6 mph - N/A   Clear
7:15 AM 53.6 °F 50.4 °F 89% 30.16 in 10.0 mi ESE 4.6 mph - N/A   Clear
7:35 AM 55.4 °F 50.9 °F 85% 30.16 in 10.0 mi ESE 6.9 mph - N/A   Clear
7:55 AM 57.4 °F 50.2 °F 77% 30.15 in 10.0 mi ESE 8.1 mph - N/A   Clear
8:15 AM 59.7 °F 50.0 °F 70% 30.15 in 10.0 mi ESE 9.2 mph - N/A   Clear
8:35 AM 62.1 °F 49.5 °F 63% 30.15 in 10.0 mi SE 11.5 mph - N/A   Clear
8:55 AM 63.3 °F 49.5 °F 61% 30.14 in 10.0 mi ESE 13.8 mph 18.4 mph N/A   Clear
9:15 AM 64.0 °F 50.4 °F 61% 30.14 in 10.0 mi SE 10.4 mph - N/A   Clear
9:35 AM 65.3 °F 51.1 °F 60% 30.14 in 10.0 mi SE 12.7 mph - N/A   Clear
9:55 AM 66.4 °F 52.2 °F 60% 30.14 in 10.0 mi SE 11.5 mph - N/A   Clear
10:15 AM 68.0 °F 53.6 °F 60% 30.14 in 10.0 mi SSE 9.2 mph - N/A   Clear
10:35 AM 68.4 °F 52.5 °F 57% 30.14 in 10.0 mi SSE 8.1 mph - N/A   Clear
10:55 AM 69.1 °F 52.5 °F 55% 30.14 in 10.0 mi SSE 6.9 mph - N/A   Clear
11:15 AM 70.0 °F 52.5 °F 54% 30.14 in 10.0 mi East 8.1 mph - N/A   Clear
11:35 AM 70.7 °F 53.1 °F 54% 30.13 in 10.0 mi ESE 8.1 mph - N/A   Clear
11:55 AM 71.2 °F 54.9 °F 56% 30.12 in 10.0 mi SE 9.2 mph - N/A   Clear
12:15 PM 72.0 °F 54.5 °F 54% 30.12 in 10.0 mi SE 9.2 mph - N/A   Clear
12:35 PM 72.5 °F 54.7 °F 53% 30.11 in 10.0 mi ESE 6.9 mph - N/A   Clear
12:55 PM 73.6 °F 54.5 °F 51% 30.10 in 10.0 mi East 8.1 mph - N/A   Clear
1:15 PM 74.1 °F 53.8 °F 49% 30.09 in 10.0 mi SE 8.1 mph - N/A   Clear
1:35 PM 75.0 °F 52.9 °F 46% 30.08 in 10.0 mi East 9.2 mph - N/A   Clear
1:55 PM 75.6 °F 54.3 °F 48% 30.08 in 10.0 mi SE 10.4 mph - N/A   Clear
2:15 PM 75.9 °F 54.1 °F 47% 30.07 in 10.0 mi ESE 9.2 mph - N/A   Clear
2:35 PM 76.6 °F 53.1 °F 44% 30.06 in 10.0 mi South 9.2 mph - N/A   Clear
2:55 PM 76.8 °F 55.0 °F 47% 30.06 in 10.0 mi SE 8.1 mph - N/A   Clear
3:15 PM 77.4 °F 53.2 °F 43% 30.05 in 10.0 mi South 8.1 mph - N/A   Clear
3:35 PM 77.9 °F 52.7 °F 41% 30.04 in 10.0 mi SSE 6.9 mph - N/A   Clear
3:55 PM 77.9 °F 50.0 °F 38% 30.03 in 10.0 mi South 8.1 mph - N/A   Clear
4:15 PM 78.4 °F 49.3 °F 36% 30.02 in 10.0 mi South 8.1 mph - N/A   Clear
4:35 PM 79.0 °F 50.4 °F 37% 30.01 in 10.0 mi South 11.5 mph 16.1 mph N/A   Clear
4:55 PM 79.0 °F 51.1 °F 38% 30.01 in 10.0 mi SSE 6.9 mph - N/A   Clear
5:15 PM 79.2 °F 50.4 °F 36% 30.00 in 10.0 mi SSW 9.2 mph - N/A   Clear
5:35 PM 79.2 °F 48.4 °F 34% 29.99 in 10.0 mi South 5.8 mph - N/A   Clear
5:55 PM 79.2 °F 48.9 °F 35% 29.99 in 10.0 mi South 5.8 mph - N/A   Clear
6:15 PM 78.8 °F 48.7 °F 35% 29.98 in 10.0 mi South 6.9 mph - N/A   Clear
6:35 PM 78.8 °F 49.8 °F 36% 29.98 in 10.0 mi South 8.1 mph - N/A   Clear
6:55 PM 78.3 °F 51.3 °F 39% 29.98 in 10.0 mi South 9.2 mph - N/A   Clear
7:15 PM 77.2 °F 52.0 °F 41% 29.98 in 10.0 mi SSW 9.2 mph - N/A   Clear
7:35 PM 75.6 °F 53.2 °F 46% 29.98 in 10.0 mi SSW 4.6 mph - N/A   Clear
7:55 PM 75.2 °F 51.8 °F 44% 29.97 in 10.0 mi South 3.5 mph - N/A   Clear
8:15 PM 73.6 °F 53.2 °F 49% 29.96 in 10.0 mi SSE 5.8 mph - N/A   Clear
8:35 PM 71.6 °F 54.7 °F 55% 29.96 in 10.0 mi SE 5.8 mph - N/A   Clear
8:55 PM 70.7 °F 53.8 °F 55% 29.96 in 10.0 mi SE 5.8 mph - N/A   Clear
9:15 PM 70.0 °F 54.3 °F 57% 29.95 in 10.0 mi SE 5.8 mph - N/A   Clear
9:35 PM 69.6 °F 54.1 °F 58% 29.95 in 10.0 mi SSE 8.1 mph - N/A   Clear
9:55 PM 70.3 °F 53.8 °F 56% 29.96 in 10.0 mi SE 5.8 mph - N/A   Clear
10:15 PM 69.1 °F 54.0 °F 58% 29.96 in 10.0 mi SE 5.8 mph - N/A   Clear
10:35 PM 67.3 °F 54.1 °F 63% 29.96 in 10.0 mi SE 5.8 mph - N/A   Clear
10:55 PM 67.1 °F 53.6 °F 62% 29.96 in 10.0 mi SE 5.8 mph - N/A   Clear
11:15 PM 66.4 °F 53.2 °F 63% 29.96 in 10.0 mi SE 5.8 mph - N/A   Clear
11:35 PM 66.2 °F 52.3 °F 61% 29.95 in 10.0 mi SE 6.9 mph - N/A   Clear
11:55 PM 65.8 °F 51.8 °F 60% 29.94 in 10.0 mi SE 6.9 mph - N/A   Clear